Find Starlink 34405

NORAD ID: 64704 Int'l Des: 2025-142 Owner: SPXS Country: US Constellation: starlink operational
LEOCIRCULAR

リアルタイム位置

3D地球を読み込み中...

Starlink 34405について

説明を読み込み中...

次回通過

Passes for default location (London). Set your location on the main map for personalized predictions.

高度履歴

Loading altitude history...

軌道要素

1 64704U 25142J 26106.75084397 .00002705 00000-0 23437-3 0 9999
2 64704 70.0017 218.4215 0003497 273.6591 86.4168 14.98335511 45199
Epoch: Apr 16, 2026 • Age: 24 hours

現在のステータス

高度 574.1 km
速度 7.57 km/s
衛星直下点 5.45°N, 100.8°E
打ち上げ日 Jun 28, 2025
運用期間 0.8 years
タイプ internet

技術仕様

分類 Payload
質量 575.00 kg
乾燥質量 530.00 kg
総質量 575.00 kg
長さ 0.30 m
直径 4.10 m
スパン 29.00 m
形状 Box + pan
製造者 SPXS
バスタイプ Starlink V2MO
フェーズステータス In Orbit
所有者/国 SPXS/US

Most Searched